This demonstration page uses our WeatherBlox Daily Observations layout. Learn more.

Left ArrowRight Arrow

Hourly Observations for December 26, 2018

Temp ( °F °C ) Dew Point ( °F °C ) Humidity (%) Winds ( mph kmh ) Pressure ( in mb ) Visibility ( mi km ) Precip ( " mm )
12:28 am 00:28 Cloudy with Mist and Fog 32 0 32 0 100 100 E 9 15 30.24 1024 1 2 0.00 0.00
12:41 am 00:41 Cloudy with Mist and Fog 32 0 32 0 100 100 E 9 15 30.24 1024 1 1 0.00 0.00
12:49 am 00:49 Cloudy with Mist and Fog 32 0 32 0 100 100 E 9 15 30.24 1024 1 2 0.00 0.00
12:57 am 00:57 Cloudy with Mist and Fog 32 0 32 0 100 100 ESE 6 9 30.20 1023 1 2 0.00 0.00
1:05 am 01:05 Cloudy with Mist and Fog 32 0 32 0 100 100 E 9 15 30.24 1024 2 3 0.00 0.00
1:14 am 01:14 Cloudy with Mist and Fog 32 0 32 0 100 100 E 9 15 30.24 1024 3 5 0.00 0.00
1:27 am 01:27 Cloudy with Mist and Fog 32 0 32 0 100 100 E 8 13 30.24 1024 3 4 0.00 0.00
1:57 am 01:57 Cloudy with Mist and Fog 32 0 32 0 100 100 E 12 19 30.19 1022 3 4 0.00 0.00
2:08 am 02:08 Cloudy with Light Wintry Mix 32 0 32 0 100 100 E 10 17 30.24 1024 4 6 0.00 0.03
2:27 am 02:27 Cloudy with Light Snow 32 0 32 0 100 100 E 9 15 30.24 1024 3 4 0.00 0.00
2:57 am 02:57 Cloudy with Light Snow 32 0 32 0 100 100 E 12 19 30.19 1022 3 4 0.01 0.25
3:35 am 03:35 Cloudy with Mist and Fog 32 0 32 0 100 100 E 14 22 30.21 1023 3 5 0.00 0.00
3:57 am 03:57 Cloudy with Mist and Fog 32 0 32 0 100 100 E 14 22 30.13 1020 4 6 0.01 0.25
4:57 am 04:57 Cloudy with Light Wintry Mix 32 0 32 0 100 100 E 16 26 30.10 1019 4 6 0.00 0.03
5:57 am 05:57 Cloudy with Light Snow 33 0.6 32 0 96 96 E 10 17 30.09 1019 3 5 0.04 1.02
6:10 am 06:10 Cloudy with Light Snow 34 1 32 0 93 93 E 12 19 30.12 1020 3 4 0.01 0.25
6:20 am 06:20 Cloudy with Light Snow 34 1 32 0 93 93 E 10 17 30.12 1020 3 5 0.02 0.51
6:57 am 06:57 Cloudy with Light Rain 33 0.6 32 0 96 96 E 14 22 30.06 1018 3 5 0.02 0.51
7:57 am 07:57 Cloudy with Light Rain 33 0.6 33 0.6 100 100 E 9 15 30.06 1018 3 5 0.01 0.25
8:08 am 08:08 Cloudy with Light Snow 34 1 34 1 100 100 E 12 19 30.09 1019 2 3 0.05 1.27
8:21 am 08:21 Cloudy with Light Snow 34 1 34 1 100 100 SE 6 9 30.09 1019 2 2 0.00 0.00
8:32 am 08:32 Cloudy with Light Snow 34 1 34 1 100 100 E 7 11 30.09 1019 1 2 0.17 4.32
8:40 am 08:40 Cloudy with Light Snow 34 1 34 1 100 100 E 13 20 30.09 1019 1 2 0.20 5.08
8:52 am 08:52 Cloudy with Light Snow 34 1 34 1 100 100 E 10 17 30.09 1019 2 3 0.21 5.33
8:57 am 08:57 Cloudy with Light Snow 34 1.1 33 0.6 97 97 E 12 19 30.05 1018 3 4 0.22 5.59
9:22 am 09:22 Cloudy with Light Snow 34 1 34 1 100 100 E 10 17 30.09 1019 2 3 0.04 1.02
9:54 am 09:54 Cloudy with Light Snow 34 1 34 1 100 100 ENE 8 13 30.09 1019 2 3 0.09 2.29
9:57 am 09:57 Cloudy with Light Snow 34 1.1 34 1.1 100 100 ENE 7 11 30.04 1017 3 4 0.09 2.29
10:17 am 10:17 Cloudy with Light Snow 34 1 34 1 100 100 E 10 17 30.03 1017 2 2 0.00 0.00
10:57 am 10:57 Cloudy with Light Rain 35 1.7 34 1.1 96 96 E 9 15 30.00 1016 3 4 0.05 1.27
11:17 am 11:17 Cloudy with Light Rain 36 2 34 1 93 93 E 10 17 30.00 1016 2 3 0.00 0.00
11:47 am 11:47 Cloudy with Light Rain 36 2 36 2 100 100 E 10 17 29.97 1015 2 3 0.00 0.00
11:57 am 11:57 Cloudy with Light Rain 35 1.7 35 1.7 100 100 E 9 15 29.94 1014 2 3 0.00 0.03
12:43 pm 12:43 Cloudy with Light Rain 36 2 36 2 100 100 E 9 15 29.94 1014 2 3 0.00 0.00
12:55 pm 12:55 Cloudy with Light Rain 36 2 36 2 100 100 E 10 17 29.94 1014 2 2 0.00 0.00
12:57 pm 12:57 Cloudy with Light Rain 36 2.2 36 2.2 100 100 E 9 15 29.89 1012 2 2 0.01 0.25
1:39 pm 13:39 Cloudy with Light Rain 36 2 36 2 100 100 E 9 15 29.91 1013 3 4 0.00 0.00
1:57 pm 13:57 Cloudy with Light Rain 37 2.8 36 2.2 96 96 E 10 17 29.84 1011 3 5 0.02 0.51
2:57 pm 14:57 Cloudy with Light Rain 37 2.8 37 2.8 100 100 E 6 9 29.85 1011 2 3 0.14 3.56
3:20 pm 15:20 Cloudy with Light Rain 37 3 37 3 100 100 E 3 6 29.91 1013 2 2 0.10 2.54
3:30 pm 15:30 Cloudy with Light Rain 37 3 37 3 100 100 ENE 5 7 29.85 1011 3 5 0.15 3.81
3:57 pm 15:57 Cloudy with Light Rain 37 2.8 37 2.8 100 100 NE 7 11 29.84 1010 3 5 0.21 5.33
4:57 pm 16:57 Cloudy with Light Rain 38 3.3 37 2.8 97 97 E 9 15 29.80 1009 3 5 0.14 3.56
5:11 pm 17:11 Cloudy with Light Rain 37 3 37 3 100 100 ENE 8 13 29.83 1010 3 4 0.00 0.00
5:21 pm 17:21 Cloudy with Light Rain 37 3 37 3 100 100 E 7 11 29.83 1010 4 6 0.07 1.78
5:57 pm 17:57 Cloudy with Light Rain 38 3.3 38 3.3 100 100 ENE 8 13 29.78 1009 3 5 0.11 2.79
6:10 pm 18:10 Cloudy with Light Rain 37 3 37 3 100 100 ENE 8 13 29.80 1009 3 4 0.02 0.51
6:23 pm 18:23 Cloudy with Light Rain 37 3 37 3 100 100 NE 8 13 29.80 1009 3 5 0.00 0.00
6:57 pm 18:57 Cloudy with Light Rain 38 3.3 38 3.3 100 100 NNE 8 13 29.78 1008 3 5 0.10 2.54
7:45 pm 19:45 Cloudy with Light Rain 37 3 37 3 100 100 N 12 19 29.77 1008 5 8 0.00 0.00
7:57 pm 19:57 Cloudy with Light Rain 37 2.8 36 2.2 96 96 N 14 22 29.76 1008 5 8 0.21 5.33
8:37 pm 20:37 Cloudy with Light Rain 36 2 36 2 100 100 N 16 26 29.74 1007 7 11 0.00 0.00
8:57 pm 20:57 Cloudy with Light Rain 36 2.2 36 2.2 100 100 N 13 20 29.74 1007 6 10 0.06 1.52
9:20 pm 21:20 Cloudy with Light Rain 37 3 36 2 93 93 N 13 20 29.77 1008 4 6 0.03 0.76
9:57 pm 21:57 Cloudy with Light Rain 36 2.2 36 2.2 100 100 N 15 24 29.73 1007 3 5 0.08 2.03
10:11 pm 22:11 Cloudy with Light Rain 36 2 36 2 100 100 N 17 28 29.74 1007 3 4 0.01 0.25
10:21 pm 22:21 Cloudy with Light Rain 36 2 36 2 100 100 N 16 26 29.74 1007 3 5 0.00 0.00
10:57 pm 22:57 Windy with Snow Likely 36 2.2 35 1.7 97 97 N 20 31 29.72 1006 4 6 0.07 1.78
11:08 pm 23:08 Windy with Snow Likely 36 2 36 2 100 100 N 22 35 29.74 1007 4 6 0.01 0.25
11:57 pm 23:57 Windy with Snow Likely 35 1.7 35 1.7 100 100 N 24 39 29.70 1006 4 6 0.07 1.78

Powered by AerisWeather